Weather History for Seward, AK

Change the Weather History Date:

Tuesday, March 18, 2014

  Actual Average Record
Temperature  
Mean Temperature 34 °F -  
Max Temperature 43 °F 38 °F 48 °F (1981)
Min Temperature 27 °F 25 °F 8 °F (1959)
Degree Days  
Heating Degree Days 31    
Moisture  
Dew Point 23 °F    
Average Humidity 66    
Maximum Humidity 92    
Minimum Humidity 51    
Precipitation  
Precipitation 0.00 in - - ()
Sea Level Pressure  
Sea Level Pressure 29.80 in    
Wind  
Wind Speed 9 mph (NNW)    
Max Wind Speed 24 mph    
Max Gust Speed 34 mph    
Visibility 10 miles    
Events      
Averages and records for this station are not official NWS values.
T = Trace of Precipitation, MM = Missing Value Source: NWS Daily Summary

Daily Weather History Graph

Daily Weather History Graph

Search for Another Location

Airport:

Trip Planner

Search our weather history database for the weather conditions in past years. The results will help you decide how hot, cold, wet, or windy it might be!

Date:

Astronomy

Mar. 18, 2014 Rise Set
Actual Time 8:04 AM AKDT 8:08 PM AKDT
Civil Twilight 7:23 AM AKDT 8:49 PM AKDT
Nautical Twilight 6:33 AM AKDT 9:39 PM AKDT
Astronomical Twilight 5:39 AM AKDT 10:33 PM AKDT
Moon 11:19 PM AKDT (3/18) 8:25 AM AKDT (3/18)
Length of Visible Light 13h 26m
Length of Day
12h 03m
Waning Gibbous, 95% of the Moon is Illuminated
Mar 18
Waning Gibbous
Mar 23
Last Quarter
Mar 30
New
Apr 7
First Quarter
Apr 14
Full

Hourly Weather History & Observations

Time (AKDT) Temp. Windchill Dew Point Humidity Pressure Visibility Wind Dir Wind Speed Gust Speed Precip Events Conditions
12:53 AM 30.0 °F - 28.0 °F 92% 29.71 in 10.0 mi Calm Calm - N/A   Mostly Cloudy
1:53 AM 28.0 °F - 26.1 °F 92% 29.72 in 10.0 mi Calm Calm - N/A   Partly Cloudy
2:53 AM 28.0 °F 21.7 °F 25.0 °F 88% 29.73 in 10.0 mi NNW 5.8 mph - N/A   Scattered Clouds
3:53 AM 28.9 °F 22.8 °F 24.1 °F 82% 29.73 in 10.0 mi North 5.8 mph - N/A   Mostly Cloudy
4:53 AM 28.9 °F 23.9 °F 23.0 °F 78% 29.74 in 10.0 mi North 4.6 mph - N/A   Partly Cloudy
5:53 AM 28.0 °F 20.8 °F 23.0 °F 81% 29.75 in 10.0 mi North 6.9 mph - N/A   Clear
6:53 AM 28.0 °F 20.0 °F 21.9 °F 78% 29.75 in 10.0 mi North 8.1 mph - N/A   Clear
7:53 AM 27.0 °F 16.1 °F 21.0 °F 78% 29.76 in 10.0 mi North 12.7 mph - N/A   Clear
8:53 AM 28.0 °F 17.5 °F 21.9 °F 78% 29.77 in 10.0 mi NNE 12.7 mph - N/A   Clear
9:53 AM 30.9 °F 22.2 °F 23.0 °F 72% 29.78 in 10.0 mi North 10.4 mph - N/A   Partly Cloudy
10:53 AM 37.0 °F 30.4 °F 24.1 °F 59% 29.79 in 10.0 mi NNE 9.2 mph - N/A   Overcast
11:53 AM 37.9 °F 30.9 °F 24.1 °F 57% 29.80 in 10.0 mi NNE 10.4 mph - N/A   Scattered Clouds
12:53 PM 39.0 °F 32.3 °F 25.0 °F 57% 29.81 in 10.0 mi North 10.4 mph - N/A   Overcast
1:53 PM 39.9 °F 33.4 °F 25.0 °F 55% 29.81 in 10.0 mi NNW 10.4 mph - N/A   Overcast
2:53 PM 39.9 °F 31.1 °F 23.0 °F 51% 29.81 in 10.0 mi NW 17.3 mph 26.5 mph N/A   Mostly Cloudy
3:53 PM 41.0 °F 31.6 °F 25.0 °F 53% 29.82 in 10.0 mi NW 20.7 mph 27.6 mph N/A   Overcast
4:53 PM 39.9 °F 31.4 °F 24.1 °F 53% 29.82 in 10.0 mi NW 16.1 mph 29.9 mph N/A   Overcast
5:53 PM 37.9 °F 28.9 °F 23.0 °F 55% 29.84 in 10.0 mi NW 16.1 mph 29.9 mph N/A   Overcast
6:53 PM 37.0 °F 26.7 °F 21.0 °F 52% 29.84 in 10.0 mi NW 19.6 mph 34.5 mph N/A   Partly Cloudy
7:53 PM 37.0 °F 26.7 °F 21.0 °F 52% 29.86 in 10.0 mi NW 19.6 mph 29.9 mph N/A   Scattered Clouds
8:53 PM 36.0 °F 24.2 °F 21.0 °F 55% 29.88 in 10.0 mi NNW 24.2 mph 32.2 mph N/A   Clear
9:53 PM 36.0 °F 24.7 °F 21.0 °F 55% 29.89 in 10.0 mi NW 21.9 mph 29.9 mph N/A   Clear
10:53 PM 36.0 °F 24.4 °F 21.0 °F 55% 29.91 in 10.0 mi NNW 23.0 mph 33.4 mph N/A   Clear
11:53 PM 36.0 °F 26.7 °F 19.9 °F 52% 29.91 in 10.0 mi NNW 15.0 mph 24.2 mph N/A   Clear